Terminal Aerodrome Forecast
Issued by NWS

Current Version | Previous Version | Graphics & Text | Print | Product List | Glossary On
Versions: 1 2 3 4 5 6 7 8 9 10 11 12 13 14 15 16 17 18 19 20 21 22 23 24 25 26 27 28 29 30 31 32 33 34 35 36 37 38 39 40 41 42
000
FTUS41 KRNK 261727
TAFLWB
TAF
KLWB 261727Z 2618/2718 VRB04KT P6SM SCT030 BKN050
     FM270900 32003KT 4SM BR FEW040
     FM271100 00000KT 1/4SM FG BKN001
     FM271300 VRB04KT P6SM SCT025 BKN050=

USA.gov is the U.S. government's official web portal to all federal, state and local government web resources and services.